| time (UTC) | temp F | wind direction | speed MPH | gust MPH | rain 1hr in | rain 24hr in | rain mn in | humidity % | barometer mb |
| 20260509034312 | 67 | 339 | 3.0 | 8.0 | 0.00 | 0.55 | 0.55 | 93 | 1012.2 |
| 20260509034042 | 67 | 335 | 2.0 | 6.0 | 0.00 | 0.55 | 0.55 | 93 | 1011.9 |
| 20260509033312 | 68 | 337 | 2.0 | 9.0 | 0.01 | 0.55 | 0.55 | 93 | 1011.0 |
| 20260509032812 | 67 | 105 | 2.0 | 9.0 | 0.02 | 0.55 | 0.55 | 93 | 1010.4 |
| 20260509032544 | 67 | 160 | 1.0 | 5.0 | 0.02 | 0.55 | 0.55 | 93 | 1010.2 |
| 20260509032043 | 67 | 74 | 1.0 | 5.0 | 0.02 | 0.55 | 0.55 | 93 | 1010.3 |
| 20260509031316 | 67 | 231 | 2.0 | 7.0 | 0.03 | 0.55 | 0.55 | 93 | 1010.6 |
| 20260509031312 | 67 | 89 | 2.0 | 6.0 | 0.02 | 0.55 | 0.55 | 93 | 1010.4 |
| 20260509030310 | 67 | 110 | 2.0 | 7.0 | 0.03 | 0.55 | 0.55 | 93 | 1010.2 |
| 20260509025810 | 67 | 170 | 2.0 | 6.0 | 0.03 | 0.55 | 0.55 | 93 | 1010.5 |
| 20260509025310 | 67 | 72 | 2.0 | 8.0 | 0.03 | 0.55 | 0.55 | 93 | 1010.6 |
| 20260509024810 | 67 | 110 | 2.0 | 8.0 | 0.03 | 0.55 | 0.55 | 93 | 1010.8 |
| 20260509024310 | 67 | 127 | 2.0 | 8.0 | 0.03 | 0.55 | 0.55 | 93 | 1011.1 |
| 20260509023809 | 67 | 108 | 1.0 | 8.0 | 0.03 | 0.55 | 0.55 | 93 | 1011.5 |
| 20260509023310 | 67 | 113 | 1.0 | 6.0 | 0.02 | 0.54 | 0.54 | 93 | 1012.4 |
| 20260509022810 | 67 | 139 | 1.0 | 4.0 | 0.02 | 0.53 | 0.54 | 93 | 1012.6 |
| 20260509022310 | 67 | 112 | 2.0 | 7.0 | 0.03 | 0.53 | 0.53 | 93 | 1012.9 |
| 20260509021809 | 67 | 87 | 1.0 | 7.0 | 0.03 | 0.53 | 0.53 | 93 | 1012.7 |
| 20260509021308 | 67 | 155 | 2.0 | 8.0 | 0.03 | 0.53 | 0.53 | 93 | 1012.6 |
| 20260509021040 | 67 | 84 | 2.0 | 8.0 | 0.02 | 0.52 | 0.52 | 93 | 1012.2 |
| 20260509020308 | 67 | 53 | 2.0 | 6.0 | 0.03 | 0.52 | 0.52 | 94 | 1012.4 |
| 20260509015808 | 66 | 248 | 2.0 | 5.0 | 0.04 | 0.52 | 0.52 | 94 | 1011.9 |
| 20260509015308 | 66 | 92 | 2.0 | 5.0 | 0.04 | 0.52 | 0.52 | 94 | 1012.0 |
| 20260509015038 | 66 | 89 | 2.0 | 7.0 | 0.04 | 0.52 | 0.52 | 94 | 1011.8 |
| 20260509014312 | 66 | 148 | 2.0 | 7.0 | 0.04 | 0.52 | 0.52 | 94 | 1012.2 |
| 20260509014308 | 66 | 159 | 2.0 | 7.0 | 0.04 | 0.52 | 0.52 | 94 | 1012.2 |
| 20260509013307 | 67 | 72 | 3.0 | 8.0 | 0.04 | 0.52 | 0.52 | 94 | 1012.2 |
| 20260509013037 | 67 | 51 | 3.0 | 8.0 | 0.03 | 0.51 | 0.52 | 94 | 1011.3 |
| 20260509012537 | 67 | 70 | 2.0 | 7.0 | 0.02 | 0.50 | 0.50 | 94 | 1011.7 |
| 20260509011806 | 67 | 107 | 1.0 | 6.0 | 0.02 | 0.50 | 0.50 | 94 | 1012.4 |
| 20260509011310 | 67 | 168 | 1.0 | 4.0 | 0.02 | 0.50 | 0.50 | 94 | 1013.0 |
| 20260509011306 | 67 | 185 | 1.0 | 4.0 | 0.02 | 0.50 | 0.50 | 94 | 1012.8 |
| 20260509010306 | 67 | 207 | 0.0 | 2.0 | 0.01 | 0.49 | 0.49 | 94 | 1013.2 |
| 20260509005805 | 67 | 214 | 0.0 | 2.0 | 0.00 | 0.48 | 0.48 | 94 | 1013.1 |
| 20260509005306 | 67 | 218 | 0.0 | 2.0 | 0.00 | 0.48 | 0.48 | 94 | 1012.9 |
| 20260509004804 | 67 | 224 | 0.0 | 1.0 | 0.00 | 0.48 | 0.48 | 94 | 1013.0 |
| 20260509004304 | 67 | 224 | 0.0 | 1.0 | 0.00 | 0.48 | 0.48 | 94 | 1013.0 |
| 20260509003804 | 67 | 224 | 0.0 | 1.0 | 0.00 | 0.48 | 0.48 | 94 | 1013.0 |
| 20260509003304 | 67 | 224 | 0.0 | 2.0 | 0.00 | 0.48 | 0.48 | 94 | 1012.9 |
| 20260509002804 | 67 | 224 | 0.0 | 2.0 | 0.00 | 0.48 | 0.48 | 94 | 1012.6 |
| 20260509002306 | 67 | 165 | 0.0 | 1.0 | 0.00 | 0.48 | 0.48 | 94 | 1012.4 |
| 20260509001804 | 67 | 165 | 0.0 | 1.0 | 0.00 | 0.48 | 0.48 | 94 | 1012.3 |
| 20260509001304 | 67 | 122 | 1.0 | 3.0 | 0.00 | 0.48 | 0.48 | 94 | 1012.2 |
| 20260509000803 | 67 | 98 | 1.0 | 3.0 | 0.01 | 0.48 | 0.48 | 94 | 1012.0 |
| 20260509000303 | 67 | 58 | 1.0 | 4.0 | 0.01 | 0.48 | 0.48 | 94 | 1012.0 |
| 20260508235802 | 67 | 87 | 1.0 | 4.0 | 0.01 | 0.48 | 0.48 | 94 | 1012.2 |
| 20260508235306 | 67 | 87 | 0.0 | 4.0 | 0.01 | 0.48 | 0.48 | 94 | 1012.5 |
| 20260508234802 | 67 | 155 | 1.0 | 3.0 | 0.01 | 0.48 | 0.48 | 94 | 1012.7 |
| 20260508234302 | 67 | 208 | 1.0 | 3.0 | 0.01 | 0.48 | 0.48 | 94 | 1012.7 |
| 20260508233802 | 67 | 108 | 1.0 | 3.0 | 0.02 | 0.48 | 0.48 | 94 | 1012.5 |
| 20260508233302 | 67 | 100 | 1.0 | 3.0 | 0.03 | 0.48 | 0.48 | 94 | 1012.6 |
| 20260508233032 | 67 | 94 | 2.0 | 3.0 | 0.04 | 0.48 | 0.48 | 94 | 1012.4 |
| 20260508232301 | 67 | 86 | 2.0 | 4.0 | 0.05 | 0.48 | 0.48 | 94 | 1012.5 |
| 20260508231802 | 67 | 74 | 2.0 | 4.0 | 0.06 | 0.48 | 0.48 | 94 | 1012.6 |
| 20260508231302 | 67 | 41 | 2.0 | 4.0 | 0.06 | 0.48 | 0.48 | 94 | 1012.9 |
| 20260508230802 | 67 | 125 | 2.0 | 6.0 | 0.07 | 0.47 | 0.47 | 94 | 1013.0 |
| 20260508230302 | 67 | 43 | 2.0 | 6.0 | 0.07 | 0.47 | 0.47 | 94 | 1013.0 |
| 20260508225802 | 67 | 75 | 1.0 | 3.0 | 0.08 | 0.47 | 0.47 | 94 | 1013.3 |
| 20260508225534 | 67 | 69 | 2.0 | 3.0 | 0.08 | 0.47 | 0.47 | 94 | 1013.7 |
| 20260508224803 | 67 | 69 | 1.0 | 4.0 | 0.08 | 0.47 | 0.47 | 94 | 1013.9 |
| 20260508224302 | 67 | 63 | 1.0 | 4.0 | 0.08 | 0.47 | 0.47 | 94 | 1014.1 |
| 20260508223803 | 67 | 77 | 0.0 | 3.0 | 0.08 | 0.46 | 0.46 | 94 | 1014.3 |
| 20260508223301 | 67 | 39 | 0.0 | 2.0 | 0.08 | 0.45 | 0.45 | 94 | 1014.5 |
| 20260508222800 | 67 | 39 | 0.0 | 2.0 | 0.08 | 0.44 | 0.44 | 94 | 1014.7 |
| 20260508222300 | 67 | 317 | 0.0 | 0.0 | 0.08 | 0.43 | 0.43 | 94 | 1015.0 |
| 20260508221800 | 67 | 317 | 0.0 | 0.0 | 0.08 | 0.42 | 0.43 | 94 | 1015.1 |
| 20260508221300 | 67 | 317 | 0.0 | 0.0 | 0.09 | 0.42 | 0.42 | 94 | 1015.2 |
| 20260508220800 | 68 | 317 | 0.0 | 0.0 | 0.07 | 0.40 | 0.41 | 94 | 1015.3 |
| 20260508220529 | 68 | 317 | 0.0 | 0.0 | 0.08 | 0.40 | 0.40 | 94 | 1015.4 |
| 20260508220028 | 68 | 317 | 0.0 | 2.0 | 0.10 | 0.39 | 0.39 | 94 | 1015.4 |
| 20260508215258 | 68 | 316 | 0.0 | 2.0 | 0.15 | 0.39 | 0.39 | 94 | 1015.4 |
| 20260508214758 | 68 | 203 | 0.0 | 4.0 | 0.18 | 0.39 | 0.39 | 94 | 1015.5 |
| 20260508214258 | 68 | 203 | 0.0 | 4.0 | 0.21 | 0.39 | 0.39 | 93 | 1015.5 |
| 20260508213756 | 68 | 259 | 0.0 | 2.0 | 0.25 | 0.38 | 0.38 | 94 | 1015.4 |
| 20260508213527 | 68 | 282 | 0.0 | 1.0 | 0.26 | 0.37 | 0.37 | 94 | 1015.5 |
| 20260508212756 | 68 | 283 | 0.0 | 1.0 | 0.25 | 0.36 | 0.37 | 94 | 1015.4 |
| 20260508212254 | 68 | 283 | 1.0 | 2.0 | 0.24 | 0.35 | 0.35 | 94 | 1015.7 |
| 20260508211753 | 68 | 206 | 1.0 | 2.0 | 0.24 | 0.34 | 0.34 | 94 | 1015.8 |
| 20260508211254 | 68 | 207 | 0.0 | 2.0 | 0.23 | 0.33 | 0.33 | 94 | 1015.3 |
| 20260508211024 | 68 | 214 | 0.0 | 1.0 | 0.23 | 0.33 | 0.33 | 93 | 1014.8 |
| 20260508210254 | 68 | 214 | 0.0 | 1.0 | 0.22 | 0.32 | 0.32 | 93 | 1014.6 |
| 20260508205754 | 68 | 213 | 1.0 | 3.0 | 0.19 | 0.29 | 0.30 | 93 | 1015.1 |
| 20260508205253 | 68 | 213 | 1.0 | 3.0 | 0.14 | 0.24 | 0.25 | 93 | 1015.5 |
| 20260508205022 | 68 | 221 | 0.0 | 2.0 | 0.11 | 0.21 | 0.22 | 93 | 1015.6 |
| 20260508204252 | 68 | 314 | 1.0 | 2.0 | 0.08 | 0.18 | 0.19 | 93 | 1015.1 |
| 20260508203752 | 69 | 315 | 1.0 | 2.0 | 0.03 | 0.13 | 0.14 | 93 | 1015.0 |
| 20260508203252 | 68 | 112 | 1.0 | 2.0 | 0.01 | 0.11 | 0.11 | 92 | 1014.9 |
| 20260508202752 | 69 | 111 | 1.0 | 3.0 | 0.01 | 0.11 | 0.11 | 92 | 1014.7 |
| 20260508202252 | 69 | 69 | 1.0 | 3.0 | 0.01 | 0.11 | 0.11 | 92 | 1014.7 |
| 20260508201751 | 69 | 57 | 2.0 | 4.0 | 0.00 | 0.10 | 0.10 | 92 | 1014.6 |
| 20260508201252 | 69 | 36 | 1.0 | 4.0 | 0.00 | 0.10 | 0.10 | 92 | 1014.5 |
| 20260508200752 | 69 | 49 | 0.0 | 2.0 | 0.00 | 0.10 | 0.10 | 92 | 1014.3 |
| 20260508200249 | 69 | 354 | 1.0 | 3.0 | 0.00 | 0.10 | 0.10 | 92 | 1014.2 |
| 20260508195750 | 69 | 69 | 1.0 | 3.0 | 0.00 | 0.10 | 0.10 | 92 | 1014.3 |
| 20260508195249 | 69 | 80 | 1.0 | 3.0 | 0.00 | 0.10 | 0.10 | 92 | 1014.4 |
| 20260508194748 | 69 | 48 | 1.0 | 3.0 | 0.00 | 0.10 | 0.10 | 92 | 1014.4 |
| 20260508194247 | 69 | 65 | 2.0 | 4.0 | 0.00 | 0.10 | 0.10 | 92 | 1014.4 |
| 20260508193748 | 69 | 82 | 2.0 | 5.0 | 0.01 | 0.10 | 0.10 | 92 | 1014.3 |
| 20260508193248 | 69 | 52 | 2.0 | 5.0 | 0.01 | 0.10 | 0.10 | 92 | 1014.2 |
| 20260508192748 | 69 | 84 | 1.0 | 3.0 | 0.03 | 0.10 | 0.10 | 92 | 1014.3 |
| 20260508192520 | 69 | 34 | 0.0 | 2.0 | 0.06 | 0.10 | 0.10 | 92 | 1014.3 |
| 20260508191748 | 69 | 62 | 1.0 | 2.0 | 0.06 | 0.10 | 0.10 | 92 | 1014.3 |
| 20260508191246 | 69 | 71 | 1.0 | 4.0 | 0.06 | 0.10 | 0.10 | 92 | 1014.3 |
| 20260508190746 | 69 | 76 | 1.0 | 4.0 | 0.06 | 0.10 | 0.10 | 92 | 1014.2 |
| 20260508190248 | 68 | 75 | 1.0 | 3.0 | 0.06 | 0.10 | 0.10 | 93 | 1014.4 |
| 20260508190244 | 69 | 77 | 1.0 | 2.0 | 0.06 | 0.10 | 0.10 | 93 | 1014.3 |
| 20260508185244 | 68 | 105 | 2.0 | 5.0 | 0.06 | 0.10 | 0.10 | 93 | 1014.6 |
| 20260508184742 | 68 | 53 | 2.0 | 5.0 | 0.06 | 0.10 | 0.10 | 93 | 1014.7 |
| 20260508184242 | 68 | 41 | 2.0 | 5.0 | 0.06 | 0.10 | 0.10 | 92 | 1014.9 |
| 20260508183742 | 68 | 70 | 2.0 | 6.0 | 0.05 | 0.09 | 0.09 | 92 | 1015.4 |
| 20260508183240 | 68 | 289 | 3.0 | 10.0 | 0.05 | 0.09 | 0.09 | 91 | 1015.8 |
| 20260508182740 | 68 | 32 | 3.0 | 10.0 | 0.03 | 0.07 | 0.08 | 91 | 1015.9 |
| 20260508182238 | 69 | 337 | 3.0 | 9.0 | 0.00 | 0.04 | 0.04 | 91 | 1016.1 |
| 20260508181738 | 69 | 247 | 2.0 | 7.0 | 0.00 | 0.04 | 0.04 | 91 | 1015.9 |
| 20260508181238 | 69 | 79 | 1.0 | 7.0 | 0.00 | 0.04 | 0.04 | 90 | 1016.0 |
| 20260508180736 | 69 | 233 | 0.0 | 2.0 | 0.00 | 0.04 | 0.04 | 90 | 1015.3 |
| 20260508180236 | 69 | 232 | 0.0 | 2.0 | 0.00 | 0.04 | 0.04 | 90 | 1014.9 |
| 20260508175736 | 69 | 207 | 0.0 | 3.0 | 0.00 | 0.04 | 0.04 | 90 | 1014.4 |
| 20260508175234 | 69 | 110 | 1.0 | 3.0 | 0.00 | 0.04 | 0.04 | 89 | 1014.1 |
| 20260508174734 | 69 | 101 | 1.0 | 3.0 | 0.00 | 0.04 | 0.04 | 89 | 1014.0 |
| 20260508174234 | 69 | 94 | 1.0 | 4.0 | 0.00 | 0.04 | 0.04 | 90 | 1013.9 |
| 20260508173734 | 69 | 72 | 2.0 | 6.0 | 0.00 | 0.04 | 0.04 | 90 | 1013.8 |
| 20260508173232 | 69 | 70 | 2.0 | 6.0 | 0.00 | 0.04 | 0.04 | 89 | 1013.9 |
| 20260508172731 | 69 | 24 | 1.0 | 3.0 | 0.00 | 0.04 | 0.04 | 89 | 1014.0 |
| 20260508172502 | 69 | 66 | 1.0 | 3.0 | 0.00 | 0.04 | 0.04 | 89 | 1014.1 |
| 20260508171731 | 69 | 112 | 1.0 | 4.0 | 0.00 | 0.05 | 0.04 | 88 | 1014.1 |
| 20260508171232 | 69 | 101 | 2.0 | 8.0 | 0.02 | 0.05 | 0.04 | 89 | 1014.0 |
| 20260508170732 | 69 | 120 | 2.0 | 8.0 | 0.02 | 0.05 | 0.04 | 88 | 1014.0 |
| 20260508170501 | 69 | 108 | 2.0 | 5.0 | 0.03 | 0.05 | 0.04 | 88 | 1014.2 |
| 20260508165730 | 69 | 148 | 2.0 | 4.0 | 0.04 | 0.05 | 0.04 | 88 | 1014.4 |
| 20260508165230 | 69 | 79 | 2.0 | 4.0 | 0.04 | 0.05 | 0.04 | 89 | 1014.4 |
| 20260508164729 | 69 | 62 | 1.0 | 5.0 | 0.04 | 0.05 | 0.04 | 89 | 1014.4 |
| 20260508164230 | 69 | 128 | 2.0 | 5.0 | 0.04 | 0.05 | 0.04 | 89 | 1014.5 |
| 20260508163727 | 69 | 101 | 2.0 | 5.0 | 0.04 | 0.08 | 0.04 | 88 | 1014.7 |
| 20260508163228 | 69 | 120 | 2.0 | 5.0 | 0.04 | 0.08 | 0.04 | 88 | 1014.8 |
| 20260508162728 | 69 | 116 | 2.0 | 5.0 | 0.04 | 0.09 | 0.04 | 88 | 1014.8 |
| 20260508162227 | 69 | 106 | 1.0 | 3.0 | 0.04 | 0.09 | 0.04 | 87 | 1015.0 |
| 20260508161728 | 70 | 98 | 1.0 | 3.0 | 0.04 | 0.10 | 0.04 | 86 | 1015.1 |
| 20260508161226 | 70 | 82 | 1.0 | 2.0 | 0.02 | 0.10 | 0.03 | 86 | 1015.2 |
| 20260508160726 | 70 | 41 | 1.0 | 3.0 | 0.02 | 0.15 | 0.02 | 84 | 1015.3 |
| 20260508160457 | 71 | 60 | 1.0 | 4.0 | 0.01 | 0.23 | 0.01 | 82 | 1015.4 |
| 20260508155724 | 71 | 59 | 2.0 | 6.0 | 0.00 | 0.24 | 0.00 | 81 | 1015.3 |
| 20260508155224 | 71 | 93 | 3.0 | 6.0 | 0.00 | 0.28 | 0.00 | 80 | 1015.3 |
| 20260508154722 | 71 | 86 | 3.0 | 5.0 | 0.00 | 0.36 | 0.00 | 82 | 1015.3 |
| 20260508154222 | 71 | 90 | 2.0 | 5.0 | 0.00 | 0.38 | 0.00 | 81 | 1015.1 |
| 20260508153722 | 71 | 53 | 2.0 | 4.0 | 0.00 | 0.41 | 0.00 | 81 | 1015.2 |
| 20260508153220 | 71 | 58 | 3.0 | 5.0 | 0.00 | 0.41 | 0.00 | 82 | 1015.4 |
| 20260508152720 | 70 | 63 | 3.0 | 5.0 | 0.00 | 0.44 | 0.00 | 83 | 1015.1 |
| 20260508152220 | 70 | 89 | 2.0 | 5.0 | 0.00 | 0.57 | 0.00 | 82 | 1015.2 |
| 20260508151720 | 70 | 63 | 2.0 | 4.0 | 0.00 | 0.58 | 0.00 | 84 | 1015.1 |
| 20260508151220 | 69 | 96 | 2.0 | 5.0 | 0.00 | 0.58 | 0.00 | 84 | 1015.1 |
| 20260508150718 | 69 | 78 | 2.0 | 5.0 | 0.00 | 0.58 | 0.00 | 84 | 1015.1 |
| 20260508150448 | 69 | 77 | 1.0 | 5.0 | 0.00 | 0.58 | 0.00 | 84 | 1015.2 |
| 20260508145718 | 68 | 67 | 2.0 | 5.0 | 0.00 | 0.58 | 0.00 | 84 | 1015.5 |
| 20260508145218 | 68 | 73 | 2.0 | 4.0 | 0.00 | 0.58 | 0.00 | 85 | 1015.5 |
| 20260508144715 | 68 | 82 | 2.0 | 5.0 | 0.00 | 0.61 | 0.00 | 84 | 1015.6 |
| 20260508144215 | 68 | 84 | 2.0 | 5.0 | 0.00 | 0.66 | 0.00 | 84 | 1015.5 |
| 20260508143716 | 68 | 42 | 2.0 | 6.0 | 0.00 | 0.75 | 0.00 | 84 | 1015.4 |
| 20260508143214 | 68 | 100 | 3.0 | 7.0 | 0.00 | 0.85 | 0.00 | 84 | 1015.3 |
| 20260508142713 | 68 | 75 | 3.0 | 7.0 | 0.00 | 1.00 | 0.00 | 83 | 1015.1 |
| 20260508142214 | 69 | 20 | 3.0 | 6.0 | 0.00 | 1.18 | 0.00 | 84 | 1015.1 |
| 20260508141712 | 69 | 356 | 4.0 | 6.0 | 0.00 | 1.20 | 0.00 | 83 | 1015.1 |
| 20260508141212 | 68 | 63 | 4.0 | 6.0 | 0.00 | 1.21 | 0.00 | 84 | 1014.9 |
| 20260508140711 | 68 | 68 | 3.0 | 6.0 | 0.00 | 1.21 | 0.00 | 84 | 1015.0 |
| 20260508140211 | 68 | 70 | 2.0 | 6.0 | 0.00 | 1.21 | 0.00 | 84 | 1015.0 |
| 20260508135712 | 68 | 66 | 2.0 | 5.0 | 0.00 | 1.21 | 0.00 | 85 | 1015.3 |
| 20260508135212 | 67 | 101 | 3.0 | 5.0 | 0.00 | 1.21 | 0.00 | 85 | 1015.4 |
| 20260508134711 | 67 | 107 | 2.0 | 5.0 | 0.00 | 1.21 | 0.00 | 85 | 1015.4 |
| 20260508134212 | 67 | 101 | 2.0 | 5.0 | 0.00 | 1.21 | 0.00 | 85 | 1015.4 |
| 20260508133711 | 67 | 31 | 2.0 | 7.0 | 0.00 | 1.21 | 0.00 | 86 | 1015.5 |
| 20260508133210 | 66 | 75 | 3.0 | 8.0 | 0.00 | 1.21 | 0.00 | 86 | 1015.5 |
| 20260508132941 | 66 | 44 | 3.0 | 8.0 | 0.00 | 1.21 | 0.00 | 85 | 1015.6 |
| 20260508132210 | 66 | 73 | 3.0 | 7.0 | 0.00 | 1.21 | 0.00 | 86 | 1015.6 |
| 20260508131942 | 66 | 66 | 3.0 | 8.0 | 0.00 | 1.21 | 0.00 | 86 | 1015.4 |
| 20260508131210 | 66 | 99 | 3.0 | 8.0 | 0.00 | 1.21 | 0.00 | 86 | 1015.5 |
| 20260508130710 | 66 | 75 | 3.0 | 7.0 | 0.00 | 1.21 | 0.00 | 87 | 1015.4 |
| 20260508130211 | 66 | 41 | 2.0 | 7.0 | 0.00 | 1.21 | 0.00 | 87 | 1015.7 |
| 20260508125709 | 66 | 95 | 2.0 | 6.0 | 0.00 | 1.21 | 0.00 | 87 | 1015.9 |
| 20260508125208 | 0 | 0.0 | 0.0 | 0.00 | 1.21 | 0.00 | 1016.1 | ||
| 20260508124618 | 0 | 0.0 | 0.0 | 0.00 | 1.21 | 0.00 | 1016.1 | ||
| 20260508124119 | 0 | 0.0 | 0.0 | 0.00 | 1.21 | 0.00 | 1016.1 | ||
| 20260508123615 | 0 | 0.0 | 0.0 | 0.00 | 1.21 | 0.00 | 1016.1 | ||
| 20260508123116 | 0 | 0.0 | 0.0 | 0.00 | 1.21 | 0.00 | 1016.0 | ||
| 20260508122615 | 0 | 0.0 | 0.0 | 0.00 | 1.21 | 0.00 | 1015.8 | ||
| 20260508122320 | 0 | 0.0 | 4.0 | 0.00 | 1.21 | 0.00 | 1015.0 | ||
| 20260508122218 | 0 | 0.0 | 0.0 | 0.00 | 1.21 | 0.00 | 1015.7 | ||
| 20260508122214 | 0 | 0.0 | 0.0 | 0.00 | 1.21 | 0.00 | 1014.9 | ||
| 20260508122210 | 0 | 0.0 | 0.0 | 0.00 | 1.21 | 0.00 | 1014.5 | ||
| 20260508122206 | 0 | 0.0 | 0.0 | 0.00 | 1.21 | 0.00 | 1014.6 | ||
| 20260508122201 | 0 | 0.0 | 0.0 | 0.00 | 1.21 | 0.00 | 1014.8 | ||
| 20260508122157 | 0 | 0.0 | 0.0 | 0.00 | 1.21 | 0.00 | 1014.8 | ||
| 20260508122153 | 0 | 0.0 | 0.0 | 0.00 | 1.21 | 0.00 | 1015.9 | ||
| 20260508122045 | 0 | 0.0 | 0.0 | 0.00 | 1.21 | 0.00 | 1015.9 | ||
| 20260508122041 | 0 | 0.0 | 0.0 | 0.00 | 1.21 | 0.00 | 1016.0 | ||
| 20260508122037 | 0 | 0.0 | 0.0 | 0.00 | 1.21 | 0.00 | 1015.9 | ||
| 20260508121928 | 0 | 0.0 | 0.0 | 0.00 | 1.21 | 0.00 | 1015.5 | ||
| 20260508121924 | 0 | 0.0 | 0.0 | 0.00 | 1.21 | 0.00 | 1015.3 | ||
| 20260508120211 | 0 | 0.0 | 0.0 | 0.00 | 1.21 | 0.00 | 1014.9 | ||
| 20260508120207 | 0 | 0.0 | 0.0 | 0.00 | 1.21 | 0.00 | 1014.7 | ||
| 20260508114454 | 0 | 0.0 | 0.0 | 0.00 | 1.21 | 0.00 | 1014.5 | ||
| 20260508114450 | 0 | 0.0 | 0.0 | 0.00 | 1.21 | 0.00 | 1014.5 | ||
| 20260508112528 | 0 | 0.0 | 0.0 | 0.00 | 1.21 | 0.00 | 1014.8 | ||
| 20260508110814 | 0 | 0.0 | 4.0 | 0.00 | 1.21 | 0.00 | 1015.0 | ||
| 20260508110311 | 0 | 51 | 2.0 | 4.0 | 0.00 | 1.21 | 0.00 | 1014.8 | |
| 20260508105750 | 0 | 51 | 2.0 | 4.0 | 0.00 | 1.21 | 0.00 | 1014.7 | |
| 20260508105247 | 64 | 51 | 2.0 | 4.0 | 0.00 | 1.21 | 0.00 | 87 | 1014.7 |
| 20260508104748 | 65 | 84 | 1.0 | 3.0 | 0.00 | 1.21 | 0.00 | 88 | 1014.7 |
| 20260508104517 | 65 | 110 | 1.0 | 3.0 | 0.00 | 1.21 | 0.00 | 88 | 1014.7 |
| 20260508104016 | 65 | 105 | 1.0 | 4.0 | 0.00 | 1.21 | 0.00 | 88 | 1014.6 |
| 20260508103514 | 65 | 48 | 2.0 | 4.0 | 0.00 | 1.21 | 0.00 | 88 | 1014.5 |
| 20260508102744 | 65 | 49 | 2.0 | 4.0 | 0.00 | 1.21 | 0.00 | 88 | 1014.5 |
| 20260508102243 | 65 | 30 | 2.0 | 4.0 | 0.00 | 1.21 | 0.00 | 88 | 1014.5 |
| 20260508101742 | 65 | 68 | 1.0 | 4.0 | 0.00 | 1.21 | 0.00 | 88 | 1014.4 |
| 20260508101241 | 65 | 74 | 2.0 | 4.0 | 0.00 | 1.21 | 0.00 | 88 | 1014.4 |
| 20260508101014 | 65 | 48 | 2.0 | 4.0 | 0.00 | 1.21 | 0.00 | 88 | 1014.3 |
| 20260508100740 | 65 | 78 | 2.0 | 4.0 | 0.00 | 1.21 | 0.00 | 88 | 1014.3 |
| 20260508100237 | 65 | 58 | 2.0 | 4.0 | 0.00 | 1.21 | 0.00 | 88 | 1014.3 |
| 20260508095238 | 65 | 37 | 2.0 | 5.0 | 0.00 | 1.21 | 0.00 | 88 | 1014.1 |
| 20260508095008 | 65 | 65 | 2.0 | 5.0 | 0.00 | 1.21 | 0.00 | 88 | 1014.1 |
| 20260508094236 | 65 | 74 | 1.0 | 5.0 | 0.00 | 1.21 | 0.00 | 89 | 1014.2 |
| 20260508093736 | 65 | 85 | 1.0 | 5.0 | 0.00 | 1.21 | 0.00 | 89 | 1014.2 |
| 20260508093234 | 65 | 60 | 1.0 | 3.0 | 0.00 | 1.21 | 0.00 | 89 | 1014.2 |
| 20260508092738 | 65 | 37 | 2.0 | 6.0 | 0.00 | 1.21 | 0.00 | 89 | 1013.9 |
| 20260508092734 | 65 | 66 | 2.0 | 5.0 | 0.00 | 1.21 | 0.00 | 89 | 1014.1 |
| 20260508091734 | 65 | 46 | 2.0 | 6.0 | 0.00 | 1.21 | 0.00 | 89 | 1013.9 |
| 20260508091234 | 65 | 45 | 2.0 | 5.0 | 0.00 | 1.21 | 0.00 | 90 | 1013.8 |
| 20260508090734 | 65 | 116 | 2.0 | 4.0 | 0.00 | 1.21 | 0.00 | 90 | 1013.9 |
| 20260508090234 | 65 | 75 | 2.0 | 4.0 | 0.00 | 1.21 | 0.00 | 90 | 1013.8 |
| 20260508085734 | 65 | 91 | 1.0 | 5.0 | 0.00 | 1.21 | 0.00 | 90 | 1013.8 |
| 20260508085234 | 65 | 103 | 2.0 | 5.0 | 0.00 | 1.21 | 0.00 | 90 | 1013.8 |
| 20260508084733 | 65 | 87 | 1.0 | 4.0 | 0.00 | 1.21 | 0.00 | 90 | 1014.1 |
| 20260508084234 | 65 | 42 | 1.0 | 3.0 | 0.00 | 1.21 | 0.00 | 90 | 1014.1 |
| 20260508083733 | 64 | 44 | 1.0 | 4.0 | 0.00 | 1.21 | 0.00 | 90 | 1013.9 |
| 20260508083504 | 65 | 53 | 1.0 | 4.0 | 0.00 | 1.21 | 0.00 | 90 | 1013.9 |
| 20260508082733 | 65 | 71 | 1.0 | 4.0 | 0.00 | 1.21 | 0.00 | 90 | 1013.7 |
| 20260508082234 | 65 | 86 | 2.0 | 6.0 | 0.00 | 1.21 | 0.00 | 90 | 1013.7 |
| 20260508081733 | 65 | 46 | 2.0 | 6.0 | 0.00 | 1.21 | 0.00 | 90 | 1013.6 |
| 20260508081504 | 65 | 44 | 2.0 | 4.0 | 0.00 | 1.21 | 0.00 | 90 | 1013.6 |
| 20260508080733 | 65 | 57 | 1.0 | 4.0 | 0.00 | 1.21 | 0.00 | 90 | 1013.8 |
| 20260508080234 | 65 | 75 | 1.0 | 5.0 | 0.00 | 1.21 | 0.00 | 90 | 1013.8 |
| 20260508075738 | 64 | 82 | 2.0 | 5.0 | 0.00 | 1.21 | 0.00 | 90 | 1013.8 |
| 20260508075733 | 65 | 41 | 2.0 | 5.0 | 0.00 | 1.21 | 0.00 | 90 | 1013.8 |
| 20260508074734 | 64 | 72 | 1.0 | 4.0 | 0.00 | 1.21 | 0.00 | 91 | 1013.8 |
| 20260508074233 | 64 | 58 | 1.0 | 3.0 | 0.00 | 1.21 | 0.00 | 91 | 1013.8 |
| 20260508073734 | 64 | 94 | 2.0 | 5.0 | 0.00 | 1.21 | 0.00 | 91 | 1013.9 |
| 20260508073233 | 64 | 56 | 2.0 | 5.0 | 0.00 | 1.21 | 0.00 | 91 | 1013.8 |
| 20260508072734 | 64 | 38 | 2.0 | 3.0 | 0.00 | 1.21 | 0.00 | 91 | 1013.9 |
| 20260508072234 | 64 | 77 | 1.0 | 2.0 | 0.00 | 1.21 | 0.00 | 91 | 1013.9 |
| 20260508071733 | 64 | 53 | 1.0 | 3.0 | 0.00 | 1.21 | 0.00 | 90 | 1014.1 |
| 20260508071234 | 64 | 79 | 1.0 | 3.0 | 0.00 | 1.21 | 0.00 | 90 | 1014.2 |
| 20260508070734 | 65 | 63 | 0.0 | 2.0 | 0.00 | 1.21 | 0.00 | 90 | 1014.2 |
| 20260508070231 | 65 | 63 | 1.0 | 3.0 | 0.00 | 1.21 | 0.00 | 90 | 1014.2 |
| 20260508065736 | 65 | 49 | 1.0 | 3.0 | 0.00 | 1.21 | 0.00 | 90 | 1014.0 |
| 20260508065732 | 65 | 62 | 1.0 | 3.0 | 0.00 | 1.21 | 0.00 | 90 | 1014.1 |
| 20260508064731 | 65 | 37 | 1.0 | 3.0 | 0.00 | 1.21 | 0.00 | 90 | 1014.1 |
| 20260508064232 | 65 | 63 | 1.0 | 3.0 | 0.00 | 1.21 | 0.00 | 90 | 1014.2 |
| 20260508063731 | 65 | 69 | 1.0 | 4.0 | 0.00 | 1.21 | 0.00 | 90 | 1014.0 |
| 20260508063502 | 65 | 340 | 2.0 | 4.0 | 0.00 | 1.21 | 0.00 | 89 | 1014.2 |
| 20260508062732 | 65 | 50 | 1.0 | 3.0 | 0.00 | 1.21 | 0.00 | 89 | 1014.3 |
| 20260508062231 | 65 | 40 | 1.0 | 4.0 | 0.00 | 1.21 | 0.00 | 89 | 1014.5 |
| 20260508061732 | 65 | 59 | 1.0 | 4.0 | 0.00 | 1.21 | 0.00 | 89 | 1014.5 |
| 20260508061231 | 65 | 56 | 1.0 | 4.0 | 0.00 | 1.21 | 0.00 | 89 | 1014.5 |
| 20260508060731 | 65 | 49 | 1.0 | 4.0 | 0.00 | 1.21 | 0.00 | 89 | 1014.7 |
| 20260508060232 | 65 | 75 | 1.0 | 3.0 | 0.00 | 1.21 | 0.00 | 89 | 1014.7 |
| 20260508055731 | 65 | 41 | 1.0 | 4.0 | 0.00 | 1.21 | 0.00 | 89 | 1014.7 |
| 20260508055232 | 65 | 53 | 1.0 | 4.0 | 0.00 | 1.21 | 0.00 | 89 | 1014.8 |
| 20260508054731 | 66 | 359 | 1.0 | 2.0 | 0.00 | 1.21 | 0.00 | 89 | 1014.8 |
| 20260508054503 | 66 | 58 | 1.0 | 4.0 | 0.00 | 1.21 | 0.00 | 89 | 1014.6 |
| 20260508054002 | 66 | 61 | 1.0 | 4.0 | 0.00 | 1.21 | 0.00 | 89 | 1014.6 |
| 20260508053231 | 66 | 93 | 1.0 | 3.0 | 0.00 | 1.21 | 0.00 | 89 | 1014.8 |
| 20260508052731 | 66 | 54 | 1.0 | 5.0 | 0.00 | 1.21 | 0.00 | 89 | 1014.7 |
| 20260508052232 | 66 | 65 | 1.0 | 5.0 | 0.00 | 1.21 | 0.00 | 89 | 1014.8 |
| 20260508051731 | 66 | 81 | 1.0 | 3.0 | 0.00 | 1.21 | 0.00 | 90 | 1014.9 |
| 20260508051231 | 66 | 58 | 1.0 | 3.0 | 0.00 | 1.21 | 0.00 | 90 | 1014.9 |
| 20260508050732 | 66 | 81 | 1.0 | 2.0 | 0.00 | 1.21 | 0.00 | 90 | 1014.8 |
| 20260508050502 | 66 | 82 | 0.0 | 2.0 | 0.00 | 1.21 | 0.00 | 90 | 1014.9 |
| 20260508045732 | 66 | 60 | 0.0 | 3.0 | 0.00 | 1.21 | 1.21 | 90 | 1014.9 |
| 20260508045230 | 66 | 65 | 1.0 | 5.0 | 0.00 | 1.21 | 1.21 | 90 | 1015.2 |
| 20260508044730 | 66 | 65 | 1.0 | 5.0 | 0.00 | 1.21 | 1.21 | 90 | 1015.3 |
| 20260508044230 | 66 | 49 | 1.0 | 3.0 | 0.00 | 1.21 | 1.21 | 90 | 1015.1 |
| 20260508043729 | 66 | 49 | 1.0 | 3.0 | 0.00 | 1.21 | 1.21 | 90 | 1014.9 |
| 20260508043230 | 66 | 316 | 0.0 | 3.0 | 0.00 | 1.21 | 1.21 | 90 | 1014.9 |
| 20260508043002 | 67 | 303 | 1.0 | 3.0 | 0.00 | 1.21 | 1.21 | 90 | 1014.8 |
| 20260508042230 | 67 | 60 | 1.0 | 3.0 | 0.00 | 1.21 | 1.21 | 90 | 1014.8 |
| 20260508041730 | 67 | 51 | 2.0 | 5.0 | 0.00 | 1.21 | 1.21 | 89 | 1014.5 |
| 20260508041230 | 67 | 60 | 2.0 | 5.0 | 0.00 | 1.21 | 1.21 | 89 | 1014.4 |
| 20260508040730 | 67 | 72 | 2.0 | 5.0 | 0.00 | 1.21 | 1.21 | 89 | 1014.6 |
| 20260508040227 | 67 | 32 | 2.0 | 6.0 | 0.00 | 1.21 | 1.21 | 89 | 1014.6 |
| 20260508035728 | 67 | 118 | 2.0 | 6.0 | 0.00 | 1.21 | 1.21 | 89 | 1014.5 |
| 20260508035228 | 67 | 56 | 3.0 | 9.0 | 0.00 | 1.21 | 1.21 | 90 | 1014.3 |
| 20260508034728 | 68 | 48 | 3.0 | 9.0 | 0.00 | 1.21 | 1.21 | 90 | 1014.4 |